Torna al catalogo

TITAN 3C TRANSTAGE R/B

AttivoGEO
NORAD 8516·ROCKET BODY·🇺🇸 United States

Lanciato Dec 14, 1975 da Cape Canaveral Space Force Station

Loading…

TLE

AggiornatoSource: Space-Track

Epoca: Sep 14, 2026, 01:33 UTC

1 08516U 75118C   26257.06512617 -.00000032  00000-0  00000-0 0  9998
2 08516   2.0518 255.5909 0011638 226.6723 132.5456  1.00552310 26674

Traccia TITAN 3C TRANSTAGE R/B in tempo reale con AllMySat

Download on the App Store